Terminal Aerodrome Forecast
Issued by NWS

Home | Current Version | Previous Version | Graphics & Text | Print | Product List | Glossary On
Versions: 1 2 3 4 5 6 7 8 9 10 11 12 13 14 15 16 17 18 19 20 21 22 23 24 25 26 27 28 29 30 31 32 33 34 35
853
FTUS43 KLOT 182320
TAFMDW
TAF
KMDW 182320Z 1900/2006 03011KT P6SM -SHRA SCT020 OVC030
     FM190200 06010KT P6SM VCSH OVC020
     FM190700 07007KT 4SM -SHRA BR FEW005 BKN008 OVC010
     FM191100 01005KT 5SM BR VCSH FEW005 OVC008
     FM191400 28005KT P6SM SCT008 BKN015 OVC025
     FM191800 19005KT P6SM BKN025
     FM192200 07007KT P6SM BKN030
     FM200000 06006KT P6SM BKN035=

USA.gov is the U.S. government's official web portal to all federal, state and local government web resources and services.